Location: Baia Mare
(47.6567°N, 23.5850°E)
Time: 20:36:24
(UTC+02:00)

ISS - Pass Details

Date: 03 February 2020
Orbit: 417 x 420 km, 51.6° (Epoch: 26 October)

Event Time Altitude Azimuth Distance (km) Brightness Sun altitude
Rises 19:37:14 0° 293° (WNW) 2,373 1.2 -21.8°
Reaches altitude 10° 19:39:22 10° 288° (WNW) 1,504 0.0 -22.2°
Enters shadow 19:42:18 49° 238° (WSW) 547 -2.9 -22.6°
